Location: Mount Kobau Star Party
(49.1167°N, 119.7333°W)
Time: 07:47:50
(UTC-08:00)

ISS - Visible Passes

Search period start: 22 January 2018 00:00
Search period end: 01 February 2018 00:00
Orbit: 402 x 407 km, 51.6° (Epoch: 23 January)

Date Brightness Start Highest point End Pass type
(mag) Time Alt. Az. Time Alt. Az. Time Alt. Az.
25 Jan -1.7 18:28:23 10° S 18:29:46 15° SSE 18:29:46 15° SSE visible
26 Jan -1.8 19:11:03 10° SW 19:12:33 23° SSW 19:12:33 23° SSW visible
27 Jan -2.7 18:19:06 10° SSW 18:21:58 29° SE 18:22:34 27° ESE visible
27 Jan -0.4 19:55:01 10° WSW 19:55:14 12° WSW 19:55:14 12° WSW visible
28 Jan -1.9 17:27:28 10° S 17:29:48 19° SE 17:32:10 10° E visible
28 Jan -3.1 19:02:39 10° WSW 19:05:10 50° WSW 19:05:10 50° WSW visible
29 Jan -3.6 18:10:24 10° SW 18:13:35 54° SSE 18:15:03 27° E visible
29 Jan -0.8 19:46:53 10° W 19:47:43 16° W 19:47:43 16° W visible
30 Jan -3.7 18:54:25 10° W 18:57:32 67° NNW 18:57:32 67° NNW visible
31 Jan -3.9 18:01:59 10° WSW 18:05:15 89° NNW 18:07:19 21° ENE visible
31 Jan -1.2 19:38:42 10° WNW 19:39:58 21° WNW 19:39:58 21° WNW visible
